Flag for Congo Weather past 2 weeks in Brazzaville, Congo

Now
79 °F

Partly sunny.


Feels Like: 81 °F
Forecast: 72 / 90 °F
Wind: 8 mph from Southwest

Location: Brazzaville / Maya-Maya

Current Time: Sep 22, 2014 at 9:43:13 AM

Latest Report: Sep 22, 2014 at 9:00 AM


Visibility: 4 mi

Pressure: 30.01 "Hg

Humidity: 74%

Dew point: 70 °F

Location of BrazzavilleLocation

Historic Weather in Brazzaville — Graph

°F

Brazzaville temperature yesterday

Maximum temperature yesterday: 88 °F (at 2:00 PM)
Minimum temperature yesterday: 72 °F (at 11:00 PM)
Average temperature yesterday: 78 °F

Past Weeks' High & Low Weather Summary

 TemperatureHumidityPressure
High93 °F (Sep 13, 2:00 PM)94% (Sep 17, 4:00 AM)30.07 "Hg (Sep 17, 4:00 AM)
Low68 °F (Sep 17, 4:00 AM)39% (Sep 19, 4:00 PM)29.80 "Hg (Sep 13, 3:00 PM)
Average78 °F69%29.95 "Hg
* Reported Sep 7 8:00 AM — Sep 22 8:00 AM, Brazzaville, Weather by CustomWeather, © 2014

Note: Actual official high and low records may vary slightly from our data, if they occured in-between our weather recording intervals... More about our weather records

Advertising

Brazzaville weather history for previous 24 hours

 ConditionsComfort  
Time TempWeatherWind HumidityBarometerVisibility
8:00 AM
Sep 22
75 °FPartly sunny.6 mph78%30.01 "Hg5 mi
7:00 AM73 °FBroken clouds.3 mph83%30.01 "Hg5 mi
6:00 AM73 °FBroken clouds.2 mph83%29.98 "Hg5 mi
5:00 AM72 °FPassing clouds.5 mph88%29.95 "Hg5 mi
4:00 AM73 °FPassing clouds.3 mph83%29.95 "Hg5 mi
3:00 AM72 °FClear.2 mph88%29.95 "Hg5 mi
2:00 AM72 °FClear.2 mph88%29.95 "Hg5 mi
1:00 AM72 °FClear.No wind88%29.95 "Hg5 mi
12:00 AM72 °FClear.1 mph88%29.92 "Hg5 mi
11:00 PM
Sep 21
72 °FClear.1 mph88%29.92 "Hg5 mi
10:00 PM73 °FClear.7 mph83%29.92 "Hg5 mi
9:00 PM73 °FClear.6 mph83%29.95 "Hg5 mi
8:00 PM73 °FPassing clouds.5 mph83%29.95 "Hg5 mi
7:00 PM75 °FLight rain. Passing clouds.3 mph78%29.95 "Hg5 mi
6:00 PM75 °FLight rain. Passing clouds.3 mph78%29.92 "Hg5 mi
5:00 PM73 °FLight rain. Scattered clouds.16 mph83%29.95 "Hg6 mi
4:02 PM79 °FLight rain. Broken clouds.25 mph70%29.92 "Hg2 mi
3:46 PM86 °FPartly sunny.14 mph52%29.92 "Hg1 mi
3:00 PM86 °FPartly sunny.13 mph52%29.89 "Hg5 mi
2:00 PM88 °FPassing clouds.3 mph52%29.89 "Hg5 mi
12:00 PM86 °FPassing clouds.6 mph52%29.98 "Hg5 mi
11:00 AM84 °FScattered clouds.7 mph55%30.01 "Hg4 mi
10:00 AM79 °FScattered clouds.8 mph70%30.04 "Hg4 mi
9:00 AM77 °FBroken clouds.8 mph69%30.04 "Hg4 mi
Weather by CustomWeather, © 2014

See weather overviewHow to use our weather pages